星链-3735 (STARLINK-3735 )

导读

STARLINK-3735是美国太空探索技术公司(SpaceX)星链计划中的一颗卫星,于北京时间2022年3月19日8时发射升空,属于星链星座组网卫星,旨在为全球提供高速低延迟互联网服务,目前(2026年)已在轨运行近四年,是星链卫星互联网星座的组成部分。

基本信息
目录编号:
52116
目录名称:
STARLINK-3735
国际标识:
2022-029AE
轨道中心:
EARTH
卫星名称:
星链-3735
卫星全名:
星链-3735 (STARLINK-3735 )
卫星状态:
在轨 (已飞行1551 天)
发射日期:
2022-03-19 UTC
国别 :
美国 (US)
星等 :
--
轨道信息
数据来源 国际轨道数据
星历时间: 2026-06-17T04:08:34+0800
19小时前
查看轨道信息
半长轴: 6917.915km
偏心率: 0.0001305
轨道倾角: 53.160°
近地点辐角 89.489°
升交点赤经 353.925°
平近点角 270.625°
近地点: 538.875km
远地点: 540.681km
周期: 95.438分钟
每日圈数: 15.088288
详细信息
固有亮度:
5
最大亮度:
2.5
卫星平台:
Starlink v1.5
覆盖范围:
全球
运营商:
太空探索技术公司
运营商所在国:
美国
制造商(研发单位):
太空探索技术公司
制造商所在国:
美国
使用方式:
暂无
卫星简介
星链(Starlink)计划是由太空探索技术公司(SpaceX)提出的一个巨型低轨卫星互联网星座项目,计划在2019年至2024年间在太空搭建由约1.2万颗卫星组成的“星链”网络,其中1584颗将部署在地球上空550千米处的近地轨道,并从2020年开始工作。该卫星仍在工作。
2D轨道图
3D轨道图
轨道高度分析图
轨道倾角分析图
轨道综合分析图
查看轨道综合分析图